DW3263 Weather Reports


Display with metric or nautical units.
time (UTC)temp
F
wind
direction
speed
MPH
gust
MPH
rain 1hr
in
rain 24hr
in
rain mn
in
humidity
%
barometer
mb
20260901151730 76 0.0 2.0 0.00 0.06 0.06 100 1014.5
20260901150519 75 0.0 2.0 0.05 0.06 0.06 100 1014.6
20260901145519 74 0.0 2.0 0.05 0.06 0.06 100 1014.6
20260901144519 74 0.0 2.0 0.05 0.06 0.06 100 1014.6
20260901143942 75 0.0 2.0 0.05 0.06 0.06 100 1014.6
20260901142519 76 0.0 1.0 0.05 0.06 0.06 100 1014.6
20260901142157 77 0.0 1.0 0.05 0.06 0.06 100 1014.9
20260901140519 78 0.0 2.0 0.00 0.01 0.01 100 1014.7
20260901135519 77 225 1.0 2.0 0.00 0.01 0.01 100 1014.7
20260901134519 77 0.0 1.0 0.00 0.02 0.01 100 1014.7
20260901133729 77 0.0 3.0 0.00 0.03 0.01 100 1014.7
20260901132519 76 0.0 3.0 0.00 0.03 0.01 100 1014.8
20260901131519 76 0.0 0.0 0.00 0.03 0.01 100 1015.0
20260901130519 76 0.0 1.0 0.00 0.03 0.01 100 1015.1
20260901125519 76 0.0 1.0 0.00 0.03 0.01 100 1015.1
20260901124519 75 225 1.0 2.0 0.00 0.03 0.01 100 1015.2
20260901123519 74 0.0 1.0 0.00 0.03 0.01 100 1015.4
20260901122519 73 0.0 1.0 0.00 0.03 0.01 100 1015.2
20260901121519 72 0.0 0.0 0.00 0.03 0.01 100 1015.2
20260901120519 71 0.0 0.0 0.00 0.03 0.01 100 1015.2
20260901115729 70 0.0 0.0 0.01 0.03 0.01 100 1015.1
20260901114729 69 0.0 0.0 0.01 0.03 0.01 100 1015.1
20260901113519 69 0.0 0.0 0.01 0.03 0.01 100 1015.3
20260901112519 69 0.0 0.0 0.01 0.03 0.01 100 1015.3
20260901111733 69 0.0 0.0 0.01 0.03 0.01 100 1015.2
20260901110519 69 0.0 0.0 0.01 0.03 0.01 100 1015.2
20260901105730 69 0.0 0.0 0.00 0.02 0.00 100 1015.3
20260901104519 69 0.0 0.0 0.00 0.02 0.00 100 1015.1
20260901103519 69 0.0 0.0 0.00 0.02 0.00 100 1015.2
20260901102945 69 0.0 0.0 0.00 0.02 0.00 100 1015.2
20260901101519 69 0.0 0.0 0.00 0.02 0.00 100 1015.1
20260901100942 69 0.0 0.0 0.00 0.02 0.00 100 1015.1
20260901095519 69 0.0 0.0 0.00 0.02 0.00 100 1015.0
20260901094520 69 0.0 0.0 0.00 0.02 0.00 100 1014.9
20260901093519 69 0.0 0.0 0.00 0.02 0.00 100 1014.9
20260901092733 69 0.0 0.0 0.00 0.02 0.00 100 1015.0
20260901091729 69 0.0 0.0 0.00 0.02 0.00 100 1015.0
20260901090519 69 0.0 0.0 0.00 0.02 0.00 100 1014.9
20260901085519 69 0.0 0.0 0.00 0.02 0.00 100 1015.1
20260901084519 69 0.0 0.0 0.00 0.02 0.00 100 1015.1
20260901083519 69 0.0 0.0 0.00 0.02 0.00 100 1015.2
20260901082519 69 0.0 0.0 0.00 0.02 0.00 100 1015.4
20260901081519 69 0.0 0.0 0.00 0.02 0.00 100 1015.5
20260901080520 69 0.0 0.0 0.00 0.02 0.00 100 1015.5
20260901075519 69 0.0 0.0 0.00 0.02 0.00 100 1015.5
20260901074520 69 0.0 0.0 0.00 0.02 0.00 100 1015.6
20260901073520 69 0.0 0.0 0.00 0.02 0.00 100 1015.7
20260901072520 69 0.0 0.0 0.00 0.02 0.00 100 1015.6
20260901071519 68 0.0 0.0 0.00 0.02 0.00 100 1015.5
20260901070731 68 0.0 0.0 0.00 0.02 0.00 100 1015.4
20260901065519 69 0.0 0.0 0.00 0.02 0.00 100 1015.6
20260901064519 69 0.0 0.0 0.00 0.02 0.00 100 1015.5
20260901063520 69 0.0 0.0 0.00 0.02 0.00 100 1015.5
20260901062943 69 0.0 0.0 0.00 0.02 0.00 100 1015.6
20260901061519 69 0.0 3.0 0.00 0.02 0.00 100 1015.7
20260901060519 69 0.0 0.0 0.00 0.02 0.00 100 1015.8
20260901055946 69 0.0 1.0 0.00 0.02 0.00 100 1016.0
20260901054519 69 0.0 0.0 0.00 0.02 0.00 100 1016.1
20260901053519 69 0.0 1.0 0.00 0.02 0.00 100 1016.2
20260901052730 70 0.0 0.0 0.00 0.02 0.00 100 1016.2
20260901051520 70 0.0 0.0 0.00 0.02 0.00 100 1016.4
20260901050732 70 0.0 0.0 0.00 0.02 0.00 100 1016.4
20260901045520 70 0.0 0.0 0.00 0.02 0.00 100 1016.4
20260901044520 70 0.0 0.0 0.00 0.02 0.00 100 1016.3
20260901043730 70 0.0 0.0 0.00 0.02 0.00 100 1016.3
20260901042520 71 0.0 1.0 0.00 0.02 0.00 100 1016.4
20260901041519 70 0.0 1.0 0.00 0.02 0.00 100 1016.5
20260901040520 70 0.0 0.0 0.00 0.02 0.00 100 1016.4
20260901035519 70 0.0 0.0 0.00 0.02 0.02 100 1016.5
20260901034519 71 0.0 1.0 0.00 0.02 0.02 100 1016.5
20260901033519 70 0.0 2.0 0.00 0.02 0.02 100 1016.6
20260901032519 70 0.0 0.0 0.00 0.02 0.02 100 1016.5
20260901031518 70 0.0 0.0 0.00 0.02 0.02 100 1016.6
20260901030519 71 0.0 0.0 0.00 0.02 0.02 100 1016.5
20260901025519 71 0.0 2.0 0.00 0.02 0.02 100 1016.5
20260901024519 71 0.0 0.0 0.00 0.02 0.02 100 1016.7
20260901023519 71 0.0 0.0 0.00 0.02 0.02 100 1016.8
20260901022519 71 0.0 0.0 0.00 0.02 0.02 100 1016.9
20260901021519 71 0.0 0.0 0.00 0.02 0.02 100 1017.0
20260901020519 71 0.0 0.0 0.00 0.02 0.02 100 1017.0
20260901015519 71 0.0 0.0 0.00 0.02 0.02 100 1017.1
20260901014519 71 0.0 0.0 0.00 0.02 0.02 100 1017.0
20260901013945 72 0.0 0.0 0.00 0.02 0.02 100 1016.8
20260901012519 72 0.0 0.0 0.00 0.02 0.02 100 1016.7
20260901011519 73 0.0 0.0 0.00 0.02 0.02 100 1016.5
20260901010519 73 0.0 0.0 0.00 0.02 0.02 100 1016.5
20260901005519 74 0.0 0.0 0.00 0.02 0.02 100 1016.5
20260901004519 75 0.0 0.0 0.00 0.02 0.02 100 1016.4
20260901003519 75 0.0 0.0 0.00 0.02 0.02 100 1016.2
20260901002519 76 0.0 0.0 0.00 0.02 0.02 100 1016.2
20260901001519 76 0.0 0.0 0.00 0.02 0.02 100 1016.3
20260901000519 77 0.0 0.0 0.00 0.02 0.02 100 1016.2
20260831235520 77 0.0 0.0 0.00 0.02 0.02 100 1016.2
20260831234519 78 0.0 0.0 0.00 0.02 0.02 100 1016.3
20260831233520 79 0.0 0.0 0.00 0.02 0.02 100 1016.3
20260831232519 79 0.0 0.0 0.00 0.02 0.02 100 1016.4
20260831231519 80 0.0 0.0 0.00 0.02 0.02 100 1016.3
20260831230519 80 0.0 2.0 0.00 0.02 0.02 13 1016.4
20260831225732 80 225 1.0 3.0 0.00 0.02 0.02 22 1016.5
20260831224519 81 0.0 2.0 0.00 0.02 0.02 18 1016.5
20260831223519 81 225 1.0 4.0 0.00 0.02 0.02 24 1016.4
20260831222943 81 225 2.0 5.0 0.00 0.02 0.02 27 1016.5
20260831221520 81 0.0 2.0 0.00 0.02 0.02 17 1016.6
20260831220519 80 225 2.0 4.0 0.00 0.02 0.02 18 1016.6
20260831215519 80 225 2.0 5.0 0.00 0.02 0.02 7 1016.6
20260831214734 79 225 2.0 3.0 0.00 0.02 0.02 1 1016.7
20260831213520 79 225 1.0 3.0 0.00 0.02 0.02 5 1016.9
20260831212730 79 225 1.0 3.0 0.00 0.02 0.02 100 1016.9
20260831211519 79 225 1.0 3.0 0.00 0.02 0.02 3 1017.0
20260831210945 79 225 2.0 4.0 0.00 0.02 0.02 2 1017.1
20260831205519 79 0.0 2.0 0.00 0.02 0.02 6 1017.1
20260831204519 79 0.0 2.0 0.00 0.02 0.02 19 1017.3
20260831203520 80 225 1.0 3.0 0.00 0.02 0.02 24 1017.3
20260831202519 80 225 1.0 3.0 0.00 0.02 0.02 24 1017.3
20260831201520 80 225 1.0 3.0 0.00 0.02 0.02 26 1017.5
20260831200519 80 225 1.0 3.0 0.00 0.02 0.02 31 1017.5
20260831195519 80 0.0 1.0 0.00 0.02 0.02 26 1017.5
20260831195156 79 225 1.0 4.0 0.00 0.02 0.02 33 1017.5
20260831193519 79 225 4.0 9.0 0.00 0.02 0.02 35 1017.6
20260831192519 79 248 2.0 5.0 0.00 0.02 0.02 23 1017.6
20260831191519 79 270 2.0 6.0 0.00 0.02 0.02 32 1017.7
20260831190520 79 270 1.0 4.0 0.00 0.02 0.02 29 1018.0
20260831185519 80 270 1.0 3.0 0.00 0.02 0.02 39 1018.2
20260831184730 79 270 2.0 4.0 0.00 0.02 0.02 25 1018.2
20260831183519 79 270 2.0 5.0 0.00 0.02 0.02 37 1018.2
20260831182520 79 270 2.0 4.0 0.00 0.02 0.02 24 1018.2
20260831181519 78 270 2.0 4.0 0.00 0.02 0.02 29 1018.3
20260831180519 78 270 2.0 3.0 0.00 0.02 0.02 24 1018.3
20260831175520 78 0.0 1.0 0.00 0.02 0.02 24 1018.5
20260831174520 78 270 1.0 4.0 0.00 0.02 0.02 32 1018.6
20260831173519 78 270 1.0 3.0 0.00 0.02 0.02 38 1018.6
20260831172520 78 270 2.0 5.0 0.00 0.02 0.02 38 1018.5
20260831171520 78 270 1.0 3.0 0.00 0.02 0.02 32 1018.7
20260831170729 78 270 1.0 2.0 0.00 0.02 0.02 25 1018.7
20260831165520 78 270 2.0 4.0 0.00 0.02 0.02 5 1018.7
20260831164520 77 270 1.0 3.0 0.00 0.02 0.02 100 1018.7
20260831163520 77 270 2.0 4.0 0.00 0.02 0.02 15 1018.7
20260831162520 78 0.0 1.0 0.00 0.02 0.02 11 1018.9
20260831161729 78 293 3.0 8.0 0.00 0.02 0.02 100 1018.8
20260831161156 77 293 2.0 5.0 0.00 0.02 0.02 100 1018.9
20260831155731 76 293 3.0 6.0 0.00 0.02 0.02 100 1018.9
20260831154520 76 293 3.0 5.0 0.00 0.02 0.02 100 1019.0
20260831153520 76 293 2.0 4.0 0.00 0.02 0.02 100 1019.0
20260831152519 75 293 2.0 4.0 0.00 0.02 0.02 100 1018.9